7 * 24
多渠道服务支持
IRIDIUM 26 是 Iridium 卫星星座计划中的一颗低轨通信卫星,由 Iridium Communications 公司运营。该卫星属于新一代 Iridium NEXT 系统,于 2017 年发射,用于提供全球范围的语音和数据通信服务。IRIDIUM 26 采用先进通信技术,支持航空、航海、政府和应急响应等领域的可靠连接。该卫星运行在约 780 公里的极地轨道上,与其他 Iridium 卫星共同构建无缝覆盖网络,提升全球通信的稳定性和覆盖能力。
美国
(US)
| 数据来源 | 国际轨道数据 |
| 星历时间: | 2025-10-28T17:02:56+0800 22小时前 查看轨道信息 |
| 半长轴: | 7145.672km |
| 偏心率: | 0.00021 |
| 轨道倾角: | 86.396° |
| 近地点辐角 | 87.783° |
| 升交点赤经 | 54.620° |
| 平近点角 | 272.361° |
| 近地点: | 766.036km |
| 远地点: | 769.038km |
| 周期: | 100.190分钟 |
| 每日圈数: | 14.372694 |